Regional Weather Roundup
Issued by NWS

Home | Current Version | Previous Version | Graphics & Text | Print | Product List | Glossary On
Versions: 1 2 3 4 5 6 7 8 9 10 11 12 13 14 15 16 17 18 19 20 21 22 23 24 25 26 27 28 29 30 31 32 33 34 35 36 37 38 39 40 41 42 43 44 45 46 47 48 49 50
000
ASUS45 KSLC 270510
RWRUT

UTAH REGIONAL WEATHER ROUNDUP
NATIONAL WEATHER SERVICE SALT LAKE CITY UT
1100 PM MDT TUE MAY 26 2015

UTZ001>011-023>025-270600-

NORTHERN UTAH

CITY           SKY/WX    TMP DP  RH WIND       PRES   REMARKS
BRIGHAM CITY   MOCLDY    53  49  87 SE5       30.06S
HILL AFB       CLOUDY    53  51  92 SE6       30.08R
LOGAN          CLEAR     49  47  93 SE5       30.06R
OGDEN          MOCLDY    54  50  86 SE3       30.06R
PROVO AIRPORT  PTCLDY    52  45  76 E6        30.11R
SALT LAKE CITY PTCLDY    56  49  77 E5        30.06R
VERNAL         CLOUDY    50  48  93 CALM      30.11R
WENDOVER       CLOUDY    55  48  76 N6        30.08R
HEBER CITY     PTCLDY    45  43  93 SE3       30.12R
WEST JORDAN    CLEAR     52  50  93 S8        30.09R

$$

UTZ012>022-026-027-270600-

SOUTHERN/CENTRAL UTAH

CITY           SKY/WX    TMP DP  RH WIND       PRES   REMARKS
BLANDING       PTCLDY    52  46  79 N9        30.18S
BRYCE CANYON   MOCLDY    43  39  86 NW6       30.23R
CEDAR CITY     MOCLDY    53  43  68 E6        30.12F
DELTA          PTCLDY    52  45  78 S7        30.10R
HANKSVILLE     MOCLDY    61  41  48 CALM      30.08R
MILFORD        MOCLDY    50  47  89 S9        30.08F
MOAB/CYNLANDS  CLEAR     57  47  69 W5        30.06R
PRICE          PTCLDY    50  39  66 N8        30.12R
ST GEORGE      PTCLDY    73  39  29 NE16G24   29.97R

$$

REGIONAL REPORTS     COLORADO/ARIZONA

CITY           SKY/WX    TMP DP  RH WIND       PRES   REMARKS
CRAIG, CO      CLOUDY    49  44  83 CALM      30.13R
GRAND JUNCTION CLOUDY    54  49  83 E7        30.10S
RIFLE          CLOUDY    52  48  86 E6        30.15S
MONTROSE       CLOUDY    51  47  86 SW6       30.16S
CORTEZ         PTCLDY    49  43  80 E5        30.14R
PAGE, AZ       PTCLDY    70  44  39 W3        30.01S
GRAND CANYON   PTCLDY    48  38  68 CALM      30.19R
KINGMAN        PTCLDY    65  23  20 S12       30.00R
FLAGSTAFF      PTCLDY    48  33  56 CALM      30.22R

$$

REGIONAL REPORTS    NEVADA/IDAHO/WYOMING

CITY           SKY/WX    TMP DP  RH WIND       PRES   REMARKS
LAS VEGAS, NV  CLOUDY    83  32  16 S16       29.83R
ELY            MOCLDY    54  42  64 SW9       30.11R
ELKO           CLEAR     58  43  57 N7        30.02R
POCATELLO, ID  CLOUDY    50  46  86 E12       30.05R
BURLEY         CLEAR     53  44  71 S6        29.99R
EVANSTON, WY   PTCLDY    43  41  93 SW8       30.14R
ROCK SPRINGS   LGT RAIN  47  43  86 W3        30.12R
KEMMERER       MOCLDY    43  41  93 W3        30.14R

$$



USA.gov is the U.S. government's official web portal to all federal, state and local government web resources and services.